This demonstration page uses our WeatherBlox Daily Observations layout. Learn more.

Left ArrowRight Arrow

39.29038, -76.61219

Hourly Observations for June 11, 2021

Temp ( °F °C ) Dew Point ( °F °C ) Humidity (%) Winds ( mph kmh ) Pressure ( in mb ) Visibility ( mi km ) Precip ( " mm )
12:35 am 00:35 Cloudy 70 21.1 63 17.2 79 79 ENE 14 22 29.97 1015 10 16.0934 N/A
12:54 am 00:54 Cloudy with Light Rain 69 20.6 64 17.8 84 84 E 13 20 29.96 1015 8 12.87472 0.001 0.001
1:54 am 01:54 Cloudy with Light Rain 68 20 65 18.3 90 90 E 9 15 29.94 1014 7 11.26538 0.01 0.254
2:02 am 02:02 Cloudy 69 20.6 65 18.3 87 87 E 9 15 29.94 1014 7 11.26538 0.001 0.001
2:16 am 02:16 Cloudy 72 22.2 70 21.1 94 94 E 9 15 29.87 1012 N/A 0.12 3.048
2:54 am 02:54 Cloudy with Light Rain 68 20 65 18.3 90 90 E 10 17 29.91 1013 5 8.0467 0.05 1.27
3:54 am 03:54 Cloudy 69 20.6 66 18.9 90 90 E 10 17 29.91 1013 9 14.48406 0.03 0.762
4:54 am 04:54 Cloudy with Light Rain 69 20.6 66 18.9 90 90 ENE 12 19 29.9 1013 9 14.48406 0.02 0.508
5:54 am 05:54 Cloudy with Light Rain 69 20.6 66 18.9 90 90 E 12 19 29.9 1012 8 12.87472 0.01 0.254
6:54 am 06:54 Cloudy with Light Rain 69 20.6 66 18.9 90 90 E 13 20 29.89 1012 5 8.0467 0.02 0.508
7:54 am 07:54 Cloudy with Light Rain 69 20.6 66 18.9 90 90 ENE 14 22 29.89 1012 4 6.43736 0.03 0.762
8:04 am 08:04 Cloudy with Heavy Rain 69 20.6 66 18.9 90 90 ENE 13 20 29.9 1012 1.5 2.41401 0.06 1.524
8:25 am 08:25 Cloudy with Light Rain 69 20.6 66 18.9 90 90 ENE 12 19 29.9 1012 3 4.82802 0.16 4.064
8:28 am 08:28 Cloudy 75 24 75 24 100 100 ENE 13 20 29.88 1012 N/A N/A
8:54 am 08:54 Cloudy with Light Rain 69 20.6 66 18.9 90 90 E 14 22 29.89 1012 3 4.82802 0.22 5.588
9:54 am 09:54 Cloudy with Light Rain 68 20 65 18.3 90 90 ENE 14 22 29.89 1012 2 3.21868 0.07 1.778
10:54 am 10:54 Cloudy with Light Rain 68 20 65 18.3 90 90 ENE 15 24 29.9 1012 2.5 4.02335 0.08 2.032
11:54 am 11:54 Cloudy with Light Rain 67 19.4 65 18.3 93 93 ENE 13 20 29.9 1012 3 4.82802 0.12 3.048
12:54 pm 12:54 Cloudy with Light Rain 67 19.4 64 17.8 91 91 ENE 16 26 29.89 1012 3 4.82802 0.04 1.016
1:54 pm 13:54 Cloudy with Light Rain 67 19.4 64 17.8 91 91 ENE 10 17 29.87 1012 3 4.82802 0.09 2.286
2:54 pm 14:54 Cloudy with Light Rain 68 20 65 18.3 90 90 E 12 19 29.87 1011 4 6.43736 0.06 1.524
3:54 pm 15:54 Cloudy with Light Rain 68 20 65 18.3 90 90 ENE 12 19 29.85 1011 4 6.43736 0.12 3.048
4:54 pm 16:54 Cloudy 68 20 65 18.3 90 90 E 12 19 29.82 1010 10 16.0934 0.05 1.27
5:54 pm 17:54 Cloudy with Light Rain 68 20 65 18.3 90 90 ENE 10 17 29.82 1010 8 12.87472 0.01 0.254
6:54 pm 18:54 Cloudy 68 20 65 18.3 90 90 ENE 13 20 29.82 1010 10 16.0934 0.01 0.254
7:54 pm 19:54 Cloudy with Light Rain 67 19.4 65 18.3 93 93 ENE 15 24 29.83 1010 2 3.21868 0.001 0.001
8:05 pm 20:05 Cloudy with Light Rain 67 19.4 64 17.8 91 91 ENE 13 20 29.83 1010 2 3.21868 0.001 0.001
8:43 pm 20:43 Cloudy with Mist and Fog 67 19.4 64 17.8 91 91 ENE 10 17 29.83 1010 5 8.0467 0.01 0.254
8:54 pm 20:54 Cloudy with Mist and Fog 67 19.4 64 17.8 91 91 ENE 15 24 29.83 1010 6 9.65604 0.01 0.254
9:54 pm 21:54 Cloudy 67 19.4 63 17.2 87 87 ENE 13 20 29.85 1011 10 16.0934 N/A
10:54 pm 22:54 Cloudy 67 19.4 63 17.2 87 87 ENE 16 26 29.84 1011 10 16.0934 N/A
11:54 pm 23:54 Cloudy 67 19.4 63 17.2 87 87 ENE 14 22 29.85 1011 10 16.0934 N/A

Powered by AerisWeather